FW0904 Weather Reports


time (UTC)temp
C
wind
direction
speed
KPH
gust
KPH
rain 1hr
cm
rain 24hr
cm
rain mn
cm
humidity
%
barometer
mb
20260508004529 7 182 0.0 0.0 0.00 0.00 0.00 91 1017.9
20260508003028 7 182 0.0 0.0 0.00 0.00 0.00 91 1018.1
20260508001527 7 182 0.0 0.0 0.00 0.00 0.00 91 1018.1
20260508000026 8 182 0.0 0.0 0.00 0.00 0.00 91 1018.1
20260507234525 7 182 0.0 1.6 0.00 0.00 0.00 91 1018.2
20260507233023 7 182 0.0 0.0 0.00 0.00 0.00 89 1018.2
20260507231520 8 182 0.0 0.0 0.00 0.00 0.00 89 1018.4
20260507230027 8 182 0.0 0.0 0.00 0.00 0.00 90 1018.6
20260507224514 8 182 0.0 0.0 0.00 0.00 0.00 89 1018.6
20260507223019 8 182 0.0 0.0 0.00 0.00 0.00 89 1018.6
20260507221513 8 182 0.0 0.0 0.00 0.00 0.00 88 1018.5
20260507220011 8 182 0.0 0.0 0.00 0.00 0.00 88 1018.6
20260507214509 8 182 0.0 0.0 0.00 0.00 0.00 87 1018.7
20260507213008 8 182 0.0 0.0 0.00 0.00 0.00 87 1018.7
20260507211507 8 182 0.0 0.0 0.00 0.00 0.00 86 1018.7
20260507210005 9 182 0.0 0.0 0.00 0.00 0.00 86 1018.6
20260507204501 9 182 0.0 0.0 0.00 0.00 0.00 85 1018.6
20260507203100 10 182 0.0 1.6 0.00 0.00 0.00 85 1018.4
20260507201619 10 182 0.0 0.0 0.00 0.00 0.00 84 1018.3
20260507200108 10 182 0.0 3.2 0.00 0.00 0.00 83 1018.1
20260507194552 10 186 0.0 3.2 0.00 0.00 0.00 82 1018.0
20260507193052 10 196 0.0 1.6 0.00 0.00 0.00 81 1017.9
20260507191548 11 89 0.0 1.6 0.00 0.00 0.00 81 1017.8
20260507190052 11 134 0.0 0.0 0.00 0.00 0.00 80 1017.7
20260507184545 11 134 0.0 1.6 0.00 0.00 0.00 79 1017.7
20260507183143 11 79 0.0 0.0 0.00 0.00 0.00 79 1017.7
20260507181542 11 79 0.0 0.0 0.00 0.00 0.00 77 1017.6
20260507180046 12 79 0.0 1.6 0.00 0.00 0.00 76 1017.5
20260507174551 12 157 0.0 0.0 0.00 0.00 0.00 76 1017.6
20260507173039 11 157 0.0 0.0 0.00 0.00 0.00 77 1017.6
20260507171542 11 157 0.0 0.0 0.00 0.00 0.00 77 1017.7
20260507170044 11 157 0.0 0.0 0.00 0.00 0.00 77 1017.6
20260507164537 11 157 0.0 0.0 0.00 0.00 0.00 76 1017.6
20260507163037 11 157 0.0 0.0 0.00 0.00 0.00 76 1017.7
20260507161540 12 157 0.0 0.0 0.00 0.00 0.00 75 1017.7
20260507160038 12 157 0.0 0.0 0.00 0.00 0.00 76 1017.7
20260507154532 12 157 0.0 0.0 0.00 0.00 0.00 75 1017.6
20260507153034 12 157 0.0 1.6 0.00 0.00 0.00 73 1017.6
20260507151529 13 157 0.0 6.4 0.00 0.00 0.00 72 1017.6
20260507150027 13 167 0.0 4.8 0.00 0.00 0.00 71 1017.6
20260507144529 13 161 0.0 3.2 0.00 0.00 0.00 68 1017.5
20260507143022 13 205 1.6 4.8 0.00 0.00 0.00 69 1017.5
20260507141518 13 159 1.6 4.8 0.00 0.00 0.00 71 1017.5
20260507133055 13 198 1.6 9.7 0.00 0.00 0.00 64 1017.7
20260507131555 13 146 4.8 9.7 0.00 0.00 0.00 65 1017.6
20260507130107 13 144 1.6 8.0 0.00 0.00 0.00 67 1017.7
20260507124618 13 256 1.6 11.3 0.00 0.00 0.00 65 1017.6
20260507123106 13 215 3.2 12.9 0.00 0.00 0.00 64 1017.7
20260507121559 13 165 0.0 9.7 0.00 0.00 0.00 60 1017.8
20260507120052 13 209 3.2 11.3 0.00 0.00 0.00 62 1017.7
20260507114553 13 215 8.0 14.5 0.00 0.00 0.00 62 1017.7
20260507113049 13 197 4.8 11.3 0.00 0.00 0.00 60 1017.7
20260507111549 13 186 3.2 9.7 0.00 0.00 0.00 60 1017.8
20260507110047 13 163 0.0 8.0 0.00 0.00 0.00 62 1017.9
20260507104544 13 196 1.6 8.0 0.00 0.00 0.00 64 1018.1
20260507103043 13 178 0.0 6.4 0.00 0.00 0.00 67 1018.1
20260507101550 14 173 0.0 4.8 0.00 0.00 0.00 62 1018.2
20260507100050 13 143 0.0 6.4 0.00 0.00 0.00 69 1018.2
20260507094539 13 165 0.0 8.0 0.00 0.00 0.00 67 1018.1
20260507093039 13 146 3.2 9.7 0.00 0.00 0.00 63 1018.1
20260507091533 12 168 0.0 3.2 0.00 0.00 0.00 71 1018.1
20260507090032 12 176 0.0 3.2 0.00 0.00 0.00 73 1018.0
20260507084529 11 192 3.2 9.7 0.00 0.00 0.00 70 1017.9
20260507083030 12 190 1.6 4.8 0.00 0.00 0.00 71 1017.9
20260507081525 11 163 0.0 0.0 0.00 0.00 0.00 77 1017.9
20260507080023 11 163 0.0 0.0 0.00 0.00 0.00 77 1017.9
20260507074520 11 42 0.0 0.0 0.00 0.00 0.00 80 1017.9
20260507073017 10 42 0.0 0.0 0.00 0.00 0.00 81 1017.8
20260507071514 10 42 0.0 0.0 0.00 0.00 0.00 84 1017.7
20260507070014 10 42 0.0 0.0 0.00 0.00 0.00 84 1017.7
20260507064510 10 42 0.0 0.0 0.00 0.00 0.00 85 1017.7
20260507063008 9 42 0.0 0.0 0.00 0.00 0.00 87 1017.6
20260507061504 8 42 0.0 0.0 0.00 0.00 0.00 88 1017.5
20260507060010 8 42 0.0 0.0 0.00 0.00 0.00 88 1017.4
20260507054600 8 42 0.0 0.0 0.00 0.00 0.00 89 1017.2
20260507053059 8 42 0.0 0.0 0.00 0.00 0.00 89 1017.2
20260507051601 8 42 0.0 0.0 0.00 0.00 0.00 88 1017.1
20260507050059 8 42 0.0 0.0 0.00 0.00 0.00 89 1017.1
20260507044556 8 42 0.0 0.0 0.00 0.00 0.00 89 1016.9
20260507043055 8 42 0.0 0.0 0.00 0.00 0.00 89 1016.9
20260507041555 8 42 0.0 0.0 0.00 0.00 0.00 89 1016.9
20260507040053 8 42 0.0 0.0 0.00 0.00 0.00 89 1016.8
20260507034553 8 42 0.0 0.0 0.00 0.00 0.00 89 1016.8
20260507033051 8 42 0.0 0.0 0.00 0.00 0.00 89 1016.7
20260507031550 8 42 0.0 0.0 0.00 0.00 0.00 89 1016.7
20260507030049 7 42 0.0 0.0 0.00 0.00 0.00 88 1016.7
20260507024601 8 42 0.0 0.0 0.00 0.00 0.00 88 1016.6
20260507023046 8 42 0.0 0.0 0.00 0.00 0.00 88 1016.5
20260507021545 8 42 0.0 0.0 0.00 0.00 0.00 88 1016.4
20260507014553 8 42 0.0 0.0 0.00 0.00 0.00 87 1016.3
20260507013047 8 42 0.0 0.0 0.00 0.00 0.00 87 1016.4
20260507011541 8 42 0.0 0.0 0.00 0.00 0.00 87 1016.4
20260507010040 8 42 0.0 0.0 0.00 0.00 0.00 87 1016.4